[[{"header":{"parameterUnit":"m.s-1","parameterCategory":1,"la1":30.2991,"la2":30.254,"lo1":-89.0895,"lo2":-89.0444,"dy":0.0017,"dx":0.0017,"nx":28,"ny":28,"refTime":"2025-12-24T03:00:00:Z","depth":0,"parameterNumber":2,"parameterNumberName":"U-component_of_WINDS"},"data":[0,0,0,0,0,0,0,0,0,0,0,0,0,0,0,0,0,0,0,0,0,0,0,0,0,0,0,0,0,0,0,0,0,0,0,0,0,0,0,0,0,0,0,0,0,0,0,0,0,0,0,0,0,0,0,0,0,0,2.2721,2.2722,0,2.2818,2.2819,2.282,2.2807,2.2805,2.2804,2.2802,2.2903,2.2907,2.2911,0,0,0,0,0,0,0,0,0,0,0,0,0,2.2528,2.2531,2.2721,2.2723,2.2724,2.2818,2.2819,2.2821,2.2807,2.2805,2.2803,2.2802,2.2902,2.2907,2.2912,0,0,0,0,0,0,0,0,0,0,0,0,0,2.2617,2.2533,2.2721,2.2728,2.273,2.2818,2.2819,2.2821,2.2808,2.2805,2.2803,2.2801,2.29,2.2906,2.2913,2.3,0,0,2.2932,2.2934,0,0,0,0,0,0,0,0,2.2612,2.2624,2.2726,2.2728,2.273,2.2798,2.2788,2.2881,2.2808,2.2778,2.2802,2.28,2.287,2.2879,2.2902,2.3004,2.3009,2.2932,2.2936,2.2939,2.2941,0,0,0,0,0,0,0,2.2606,2.262,2.276,2.2728,2.273,2.2728,2.2738,2.2806,2.2837,2.2781,2.278,2.2792,2.2871,2.2896,2.2905,2.301,2.2932,2.2938,2.2942,2.2944,2.319,2.3193,0,0,0,0,0,0,2.2597,2.2615,2.2757,2.2763,2.2664,2.2733,2.2744,2.2779,2.2836,2.2842,2.2794,2.2791,2.2887,2.2897,2.2908,2.3015,2.2939,2.2945,2.2948,2.3187,2.3191,2.3194,0,0,0,0,0,0,2.2593,2.261,2.2753,2.2689,2.2707,2.2739,2.2778,2.2782,2.2807,2.2846,2.2851,2.2814,2.2885,2.2899,2.2977,2.3018,2.2947,2.2953,2.3184,2.3188,2.3192,2.3228,0,0,0,0,0,0,2.2588,2.2609,2.2641,2.2689,2.271,2.2819,2.278,2.2786,2.2818,2.2815,2.2866,2.2872,2.2885,2.2968,2.2983,2.3026,2.2958,2.3181,2.3186,2.3191,2.3224,2.3233,2.3242,0,0,0,0,0,2.2581,2.2648,2.2643,2.266,2.2751,2.2822,2.2834,2.2846,2.2821,2.2855,2.288,2.2871,2.3011,2.2976,2.2993,2.3038,2.3178,2.3185,2.3191,2.322,2.3231,2.3241,0,0,0,0,0,0,2.2604,2.2654,2.2649,2.2734,2.2774,2.2819,2.2862,2.2858,2.2906,2.2901,2.2915,2.2927,2.3006,2.303,2.299,2.3126,2.3091,2.3101,2.3108,2.3119,2.3128,2.3121,2.2963,0,0,0,0,0,2.2619,2.2671,2.2712,2.2783,2.2803,2.2829,2.286,2.2866,2.2908,2.2925,2.2956,2.2998,2.3051,2.3087,2.3138,2.3227,2.3239,2.3267,2.3275,2.3283,2.3291,2.3342,2.3355,2.3214,2.3214,2.3214,0,0,2.265,2.2684,2.2716,2.2788,2.282,2.2874,2.2843,2.2902,2.2943,2.2935,2.301,2.3034,2.3082,2.3166,2.3205,2.3188,2.3333,2.3291,2.3296,2.3301,2.3349,2.3363,2.3374,2.3219,2.3218,2.3217,0,0,2.2735,2.2765,2.2828,2.286,2.2909,2.2926,2.2941,2.2988,2.3004,2.3079,2.3074,2.3124,2.3216,2.3251,2.328,2.338,2.3374,2.3396,2.3443,2.3492,2.3503,2.3513,2.3549,2.3562,2.3405,2.3405,2.3405,0,2.2767,2.2849,2.2861,2.2921,2.2953,2.2948,2.3012,2.3043,2.3106,2.3129,2.311,2.3226,2.3258,2.3351,2.3375,2.3399,2.3418,2.3391,2.35,2.351,2.352,2.3555,2.3569,2.3407,2.3407,2.3407,2.3407,0,2.2888,2.2944,2.2989,2.305,2.3088,2.315,2.3172,2.3209,2.3212,2.3232,2.331,2.3348,2.3408,2.343,2.3434,2.3524,2.3513,2.3497,2.3462,2.3536,2.3569,2.3582,2.3411,2.341,2.3409,2.3409,0,0,2.2989,2.3056,2.3072,2.3101,2.3154,2.3199,2.3261,2.3319,2.3351,2.3395,2.3449,2.3527,2.3513,2.3547,2.3555,2.3598,2.3676,2.3577,2.3578,2.3595,2.3779,2.3791,2.3806,2.3672,2.3675,2.3677,2.3775,0,2.3079,2.3189,2.3202,2.33,2.3353,2.335,2.3404,2.3444,2.3464,2.3513,2.3536,2.3592,2.3568,2.3589,2.3631,2.3657,2.3713,2.365,2.3723,2.3725,2.3711,2.3824,2.3836,2.3927,2.3788,2.3791,2.3792,0,2.3199,2.3247,2.335,2.3398,2.3421,2.3469,2.3524,2.3571,2.3616,2.3628,2.3667,2.367,2.3735,2.3698,2.3789,2.3746,2.3777,2.3794,2.3798,2.3806,2.3763,2.3835,2.3957,2.397,2.3813,2.3811,2.3809,0,2.3264,2.3354,2.3427,2.3452,2.3509,2.3543,2.3569,2.3612,2.3646,2.3695,2.3718,2.3773,2.3804,2.3847,2.3866,2.3837,2.3957,2.392,2.3969,2.3969,2.3995,2.3993,2.4124,2.4014,2.4013,2.4013,2.4013,0,2.3364,2.3427,2.3457,2.3503,2.3574,2.3589,2.366,2.3684,2.3723,2.3774,2.3774,2.3822,2.3843,2.3894,2.3909,2.3983,2.3997,2.4009,2.4012,2.4009,2.4008,2.403,2.4024,2.4017,2.4016,2.4015,2.4015,0,2.3448,2.347,2.3551,2.3599,2.3612,2.3663,2.3704,2.3749,2.3769,2.3834,2.385,2.3882,2.3943,2.3965,2.4039,2.4049,2.4135,2.4133,2.412,2.4121,2.4168,2.4164,2.4318,2.434,2.4215,2.4216,2.4217,0,2.351,2.3559,2.3613,2.3646,2.3673,2.3728,2.3763,2.3781,2.3818,2.3874,2.3912,2.3973,2.4022,2.4119,2.415,2.4207,2.4207,2.4257,2.4215,2.4211,2.4208,2.4205,2.4211,2.4264,2.4266,2.4267,2.4268,0,2.3619,2.3628,2.3679,2.3734,2.3777,2.3821,2.3865,2.3893,2.3917,2.3959,2.4021,2.4059,2.4135,2.4195,2.4254,2.4281,2.4279,2.4281,2.4295,2.4292,2.4283,2.4289,2.4141,2.4277,2.4276,2.4275,2.4275,2.4274,2.3694,2.3738,2.3783,2.384,2.3875,2.3916,2.396,2.3986,2.4038,2.4101,2.4109,2.4176,2.4221,2.43,2.433,2.4383,2.437,2.4391,2.4396,2.4401,2.4405,2.4274,2.4394,2.4394,2.4394,2.4393,2.4393,0,2.3804,2.3833,2.3885,2.3946,2.3991,2.3985,2.4033,2.4072,2.4131,2.4173,2.4222,2.4294,2.4353,2.4389,2.4448,2.4484,2.4485,2.4499,2.4497,2.4503,2.4413,2.4395,2.4498,2.4498,2.4498,2.4498,2.4498,2.4498,2.3866,2.394,2.3955,2.4046,2.4075,2.4141,2.4169,2.4207,2.4241,2.4321,2.437,2.4393,2.4434,2.4496,2.4551,2.456,2.4582,2.4598,2.4606,2.452,2.451,2.4499,2.4482,2.4602,2.4602,2.4692,2.4693,2.4693]},{"header":{"parameterUnit":"m.s-1","parameterCategory":1,"la1":30.2991,"la2":30.254,"lo1":-89.0895,"lo2":-89.0444,"dy":0.0017,"dx":0.0017,"nx":28,"ny":28,"refTime":"2025-12-24T03:00:00:Z","depth":0,"parameterNumber":3,"parameterNumberName":"V-component_of_WINDS"},"data":[0,0,0,0,0,0,0,0,0,0,0,0,0,0,0,0,0,0,0,0,0,0,0,0,0,0,0,0,0,0,0,0,0,0,0,0,0,0,0,0,0,0,0,0,0,0,0,0,0,0,0,0,0,0,0,0,0,0,0.7493,0.7493,0,0.7474,0.7474,0.7473,0.7471,0.7471,0.7471,0.7471,0.7449,0.7448,0.7448,0,0,0,0,0,0,0,0,0,0,0,0,0,0.7524,0.7523,0.7493,0.7493,0.7492,0.7474,0.7474,0.7473,0.7471,0.7471,0.7471,0.7471,0.7449,0.7448,0.7447,0,0,0,0,0,0,0,0,0,0,0,0,0,0.7508,0.7523,0.7493,0.7489,0.7488,0.7474,0.7474,0.7473,0.7471,0.7471,0.7471,0.7472,0.745,0.7448,0.7447,0.7435,0,0,0.7444,0.7443,0,0,0,0,0,0,0,0,0.7509,0.7507,0.749,0.7489,0.7489,0.7475,0.7476,0.746,0.7471,0.7477,0.7471,0.7472,0.7457,0.7456,0.7451,0.7434,0.7433,0.7444,0.7443,0.7443,0.7442,0,0,0,0,0,0,0,0.751,0.7508,0.7485,0.749,0.7489,0.7487,0.7485,0.7473,0.7466,0.7477,0.7477,0.7475,0.7457,0.7452,0.7451,0.7432,0.7444,0.7443,0.7442,0.7442,0.7401,0.7401,0,0,0,0,0,0,0.7512,0.7509,0.7486,0.7485,0.75,0.7486,0.7484,0.7479,0.7466,0.7464,0.7474,0.7474,0.7454,0.7452,0.745,0.7433,0.7443,0.7441,0.7441,0.7402,0.7401,0.7401,0,0,0,0,0,0,0.7513,0.751,0.7487,0.7497,0.7494,0.7486,0.748,0.7479,0.7474,0.7464,0.7463,0.7471,0.7454,0.7452,0.7438,0.7432,0.7441,0.744,0.7402,0.7401,0.7401,0.74,0,0,0,0,0,0,0.7514,0.7511,0.7507,0.7497,0.7493,0.7476,0.7479,0.7478,0.7472,0.7472,0.7461,0.7459,0.7454,0.744,0.7437,0.7431,0.7439,0.7403,0.7402,0.7401,0.74,0.7399,0.7399,0,0,0,0,0,0.7515,0.7507,0.7506,0.7504,0.7488,0.7476,0.7474,0.7469,0.7472,0.7467,0.746,0.7459,0.7433,0.7439,0.7435,0.7429,0.7403,0.7402,0.7401,0.7401,0.74,0.7399,0,0,0,0,0,0,0.7516,0.7506,0.7505,0.7493,0.7486,0.7476,0.747,0.7468,0.7459,0.746,0.7453,0.7451,0.7437,0.7432,0.7438,0.7415,0.7418,0.7417,0.7419,0.7418,0.7417,0.7418,0.7438,0,0,0,0,0,0.7515,0.7507,0.7498,0.7489,0.7485,0.7478,0.7473,0.747,0.7461,0.7458,0.745,0.7441,0.7431,0.7424,0.7414,0.74,0.7396,0.7393,0.7392,0.7392,0.739,0.738,0.7379,0.7398,0.7398,0.7398,0,0,0.7512,0.7506,0.7501,0.7489,0.7482,0.7473,0.7475,0.7466,0.7459,0.7456,0.7443,0.7437,0.7426,0.7412,0.7405,0.7407,0.7384,0.739,0.739,0.7389,0.7379,0.7378,0.7376,0.7397,0.7397,0.7398,0,0,0.7503,0.7498,0.7489,0.7482,0.7473,0.7468,0.7466,0.7456,0.7452,0.7439,0.7437,0.7427,0.741,0.7402,0.7396,0.7382,0.738,0.7379,0.7373,0.7364,0.7363,0.7361,0.7355,0.7353,0.7377,0.7377,0.7377,0,0.7501,0.7488,0.7484,0.7475,0.7469,0.7466,0.7456,0.745,0.7437,0.7433,0.7435,0.7412,0.7405,0.7388,0.7385,0.738,0.7376,0.738,0.7363,0.7362,0.7361,0.7355,0.7353,0.7377,0.7377,0.7377,0.7377,0,0.7485,0.7476,0.747,0.7458,0.7452,0.7442,0.7435,0.7429,0.7426,0.7421,0.7407,0.7398,0.7385,0.7381,0.7378,0.7363,0.7364,0.7365,0.7368,0.7359,0.7353,0.7351,0.7377,0.7377,0.7377,0.7377,0,0,0.7476,0.7462,0.746,0.7454,0.7443,0.7435,0.7425,0.7413,0.7407,0.7398,0.7388,0.7373,0.7373,0.7366,0.7362,0.7354,0.7342,0.7356,0.7355,0.7353,0.7324,0.7323,0.732,0.7341,0.7341,0.734,0.7324,0,0.7465,0.7447,0.7443,0.7427,0.7418,0.7415,0.7406,0.7397,0.7392,0.7382,0.7375,0.7364,0.7366,0.7361,0.7353,0.7346,0.7336,0.7347,0.733,0.733,0.7333,0.7318,0.7317,0.7302,0.7322,0.7322,0.7321,0,0.745,0.7441,0.7425,0.7414,0.741,0.7402,0.739,0.7381,0.7371,0.7367,0.7359,0.7355,0.7342,0.7346,0.7328,0.7335,0.7328,0.7323,0.7322,0.732,0.7325,0.7314,0.7298,0.7295,0.7318,0.7318,0.7319,0,0.7443,0.7427,0.7415,0.7411,0.7398,0.7392,0.7386,0.7376,0.7369,0.7359,0.7354,0.7341,0.7334,0.7324,0.7317,0.7321,0.7298,0.7302,0.7294,0.7294,0.7289,0.7289,0.727,0.7285,0.7286,0.7286,0.7286,0,0.7431,0.7421,0.7413,0.7405,0.7393,0.7388,0.7375,0.7369,0.736,0.735,0.7347,0.7337,0.7328,0.7317,0.7311,0.7296,0.7293,0.7288,0.7287,0.7289,0.7289,0.7283,0.7284,0.7285,0.7285,0.7285,0.7285,0,0.7422,0.7416,0.7403,0.7392,0.7389,0.738,0.737,0.7362,0.7356,0.7343,0.734,0.733,0.7317,0.7308,0.7291,0.7287,0.727,0.7269,0.7274,0.7273,0.7264,0.7265,0.7241,0.7237,0.7255,0.7255,0.7255,0,0.7415,0.7407,0.7395,0.7389,0.7383,0.7373,0.7366,0.7359,0.7352,0.7338,0.7331,0.7318,0.7307,0.7285,0.7275,0.7261,0.726,0.7252,0.7258,0.7259,0.7258,0.7259,0.7257,0.7251,0.7251,0.7251,0.7251,0,0.7401,0.7398,0.7389,0.7378,0.737,0.736,0.7351,0.7346,0.7337,0.7329,0.7315,0.7307,0.7289,0.7275,0.726,0.7253,0.725,0.7249,0.7246,0.7247,0.725,0.7247,0.727,0.725,0.725,0.725,0.725,0.725,0.7392,0.7385,0.7375,0.7364,0.7356,0.7348,0.7339,0.7332,0.7321,0.7307,0.7303,0.7289,0.7277,0.7257,0.7249,0.7236,0.7237,0.7233,0.7232,0.7231,0.723,0.7253,0.7234,0.7234,0.7234,0.7234,0.7234,0,0.7378,0.7371,0.7361,0.7349,0.734,0.7339,0.7328,0.732,0.7308,0.7297,0.7286,0.727,0.7256,0.7245,0.723,0.7222,0.722,0.7218,0.7219,0.7217,0.7231,0.7235,0.722,0.722,0.722,0.722,0.722,0.722,0.7369,0.7356,0.7352,0.7335,0.7328,0.7315,0.7308,0.7299,0.7291,0.7273,0.7262,0.7255,0.7244,0.7228,0.7215,0.7212,0.7206,0.7204,0.7201,0.7214,0.7216,0.7217,0.722,0.7203,0.7203,0.7187,0.7187,0.7187]}]]